Flag for Vanuatu Weather past 2 weeks in Port Vila, Vanuatu

Now
88 °F

Scattered clouds.


Feels Like: 105 °F
Forecast: 81 / 87 °F
Wind: 8 mph from Southeast

Location: Bauerfield Efate

Current Time: Mar 4, 2015 at 4:23:58 PM

Latest Report: Mar 4, 2015 at 4:00 PM


Visibility: N/A

Pressure: 29.68 "Hg

Humidity: 79%

Dew point: 81 °F

Location of Port VilaLocation

Historic Weather in Port Vila — Graph

°F

Port Vila temperature yesterday

Maximum temperature yesterday: 90 °F (at 2:00 PM)
Minimum temperature yesterday: 75 °F (at 3:00 AM)
Average temperature yesterday: 80 °F

Past Weeks' High & Low Weather Summary

 TemperatureHumidityPressure
High91 °F (Feb 18, 12:00 PM)100% (Feb 18, 4:00 AM)29.89 "Hg (Feb 18, 4:00 AM)
Low75 °F (Feb 20, 5:00 AM)66% (Feb 22, 10:00 AM)29.62 "Hg (Feb 25, 1:00 PM)
Average81 °F88%29.73 "Hg
* Reported Feb 17 3:00 PM — Mar 4 3:00 PM, Port Vila, Weather by CustomWeather, © 2015

Note: Actual official high and low records may vary slightly from our data, if they occured in-between our weather recording intervals... More about our weather records

Advertising

Port Vila weather history for previous 24 hours

 ConditionsComfort  
Time TempWeatherWind HumidityBarometerVisibility
3:00 PM
Wed, Mar 4
90 °FScattered clouds.10 mph75%29.71 "HgN/A
2:00 PM90 °FScattered clouds.10 mph71%29.71 "HgN/A
1:00 PM90 °FScattered clouds.9 mph67%29.71 "HgN/A
12:00 PM90 °FScattered clouds.8 mph67%29.74 "HgN/A
11:00 AM90 °FScattered clouds.8 mph67%29.74 "HgN/A
10:00 AM88 °FScattered clouds.8 mph79%29.77 "HgN/A
8:00 AM82 °FPassing clouds.3 mph94%29.74 "HgN/A
7:00 AM79 °FScattered clouds.2 mph100%29.74 "HgN/A
5:00 AM75 °FPassing clouds.2 mph100%29.71 "HgN/A
4:00 AM75 °FPassing clouds.2 mph100%29.71 "HgN/A
3:00 AM75 °FPassing clouds.3 mph100%29.74 "HgN/A
2:00 AM75 °FPassing clouds.2 mph100%29.74 "HgN/A
1:00 AM77 °FPassing clouds.2 mph100%29.77 "HgN/A
12:00 AM77 °FPassing clouds.2 mph100%29.77 "HgN/A
11:00 PM
Tue, Mar 3
79 °FPassing clouds.2 mph94%29.80 "HgN/A
10:00 PM79 °FPassing clouds.2 mph100%29.80 "HgN/A
9:00 PM79 °FPassing clouds.3 mph100%29.80 "HgN/A
8:00 PM81 °FPassing clouds.No wind94%29.77 "HgN/A
7:00 PM81 °FPassing clouds.No wind94%29.74 "HgN/A
6:00 PM82 °FScattered clouds.3 mph84%29.74 "HgN/A
5:00 PM84 °FPartly sunny.6 mph84%29.71 "HgN/A
4:00 PM88 °FPartly sunny.6 mph79%29.68 "HgN/A
Weather by CustomWeather, © 2015

See weather overviewHow to use our weather pages